TimeMDT,TemperatureF,Dew PointF,Humidity,Sea Level PressureIn,VisibilityMPH,Wind Direction,Wind SpeedMPH,Gust SpeedMPH,PrecipitationIn,Events,Conditions,WindDirDegrees,DateUTC
12:53 AM,64.9,23.0,20,29.81,10.0,South,13.8,-,N/A,,Clear,180,2014-05-03 06:53:00
1:53 AM,62.1,26.1,25,29.80,10.0,South,9.2,-,N/A,,Clear,170,2014-05-03 07:53:00
2:53 AM,57.9,26.1,30,29.78,10.0,NE,3.5,-,N/A,,Clear,50,2014-05-03 08:53:00
3:53 AM,60.8,26.6,27,29.89,10.0,Variable,3.5,-,N/A,,Clear,0,2014-05-03 09:53:00
4:53 AM,52.0,30.9,45,29.77,10.0,NW,10.4,-,N/A,,Clear,320,2014-05-03 10:53:00
5:53 AM,50.0,30.0,46,29.78,10.0,Calm,Calm,-,N/A,,Clear,0,2014-05-03 11:53:00
6:53 AM,53.1,30.0,41,29.79,10.0,WSW,10.4,-,N/A,,Clear,240,2014-05-03 12:53:00
7:53 AM,63.0,27.0,26,29.79,10.0,SSW,16.1,-,N/A,,Clear,210,2014-05-03 13:53:00
8:53 AM,66.0,26.1,22,29.81,10.0,WSW,28.8,36.8,N/A,,Clear,240,2014-05-03 14:53:00
9:53 AM,66.9,27.0,22,29.82,10.0,WSW,27.6,32.2,N/A,,Clear,250,2014-05-03 15:53:00
10:53 AM,69.1,25.0,19,29.82,10.0,WSW,25.3,-,N/A,,Clear,240,2014-05-03 16:53:00
11:53 AM,71.1,27.0,19,29.82,10.0,WSW,19.6,26.5,N/A,,Clear,250,2014-05-03 17:53:00
12:53 PM,73.9,25.0,16,29.78,10.0,West,24.2,28.8,N/A,,Clear,260,2014-05-03 18:53:00
1:53 PM,75.2,23.0,14,29.89,10.0,WSW,18.4,28.8,N/A,,Clear,250,2014-05-03 19:53:00
2:53 PM,78.1,19.9,11,29.73,10.0,WSW,20.7,32.2,N/A,,Partly Cloudy,250,2014-05-03 20:53:00
3:53 PM,78.1,23.0,13,29.70,10.0,West,21.9,28.8,N/A,,Partly Cloudy,260,2014-05-03 21:53:00
4:53 PM,78.1,21.0,12,29.69,10.0,West,21.9,-,N/A,,Partly Cloudy,260,2014-05-03 22:53:00
5:53 PM,77.0,19.9,12,29.68,10.0,WSW,13.8,-,N/A,,Clear,250,2014-05-03 23:53:00
6:53 PM,75.9,25.0,15,29.65,10.0,West,9.2,-,N/A,,Clear,270,2014-05-04 00:53:00
7:53 PM,70.0,42.1,36,29.64,10.0,NNW,3.5,-,N/A,,Clear,340,2014-05-04 01:53:00
8:53 PM,57.0,34.0,42,29.66,10.0,South,5.8,-,N/A,,Clear,170,2014-05-04 02:53:00
9:53 PM,55.9,32.0,40,29.67,10.0,East,4.6,-,N/A,,Clear,100,2014-05-04 03:53:00
10:53 PM,54.0,27.0,35,29.67,10.0,SSW,5.8,-,N/A,,Clear,210,2014-05-04 04:53:00
11:53 PM,52.0,26.1,37,29.67,10.0,SW,5.8,-,N/A,,Clear,220,2014-05-04 05:53:00